Change the Weather History Date:

Saturday, March 23, 2013

  Actual Average Record
Temperature  
Mean Temperature 59 °F -  
Max Temperature 79 °F 79 °F 98 °F (1916)
Min Temperature 39 °F 40 °F 24 °F (2006)
Degree Days  
Heating Degree Days 6    
Growing Degree Days 9 (Base 50)    
Moisture  
Dew Point 30 °F    
Average Humidity 44    
Maximum Humidity 75    
Minimum Humidity 10    
Precipitation  
Precipitation 0.00 in - - ()
Sea Level Pressure  
Sea Level Pressure 29.78 in    
Wind  
Wind Speed 9 mph (West)    
Max Wind Speed 31 mph    
Max Gust Speed 44 mph    
Visibility 9 miles    
Events      
Averages and records for this station are not official NWS values.
T = Trace of Precipitation, MM = Missing Value Source: NWS Daily Summary

Daily Weather History Graph

Daily Weather History Graph

Search for Another Location

Airport or City:

Trip Planner

Search our weather history database for the weather conditions in past years. The results will help you decide how hot, cold, wet, or windy it might be!

Date:

Astronomy

Mar. 23, 2013 Rise Set
Actual Time 7:53 AM CDT 8:07 PM CDT
Civil Twilight 7:29 AM CDT 8:32 PM CDT
Nautical Twilight 7:01 AM CDT 9:00 PM CDT
Astronomical Twilight 6:32 AM CDT 9:29 PM CDT
Moon 4:48 PM CDT (3/23) 5:18 AM CDT (3/23)
Length of Visible Light 13h 02m
Length of Day
12h 14m
Waxing Gibbous, 85% of the Moon is Illuminated
Mar 23
Waxing Gibbous
Mar 27
Full
Apr 2
Last Quarter
Apr 10
New
Apr 18
First Quarter

Hourly Weather History & Observations

Time (CDT) Temp. Windchill Dew Point Humidity Pressure Visibility Wind Dir Wind Speed Gust Speed Precip Events Conditions
12:15 AM 60.3 °F - 36.5 °F 41% 29.74 in 10.0 mi SE 11.5 mph - N/A   Clear
12:35 AM 59.0 °F - 36.1 °F 42% 29.75 in 10.0 mi SSW 3.5 mph - N/A   Clear
12:55 AM 59.0 °F - 36.0 °F 42% 29.74 in 10.0 mi SE 10.4 mph - N/A   Clear
1:15 AM 56.8 °F - 36.0 °F 46% 29.74 in 7.0 mi SE 8.1 mph - N/A   Clear
1:35 AM 56.3 °F - 35.8 °F 46% 29.74 in 10.0 mi Calm Calm - N/A   Clear
1:55 AM 55.9 °F - 35.6 °F 46% 29.74 in 10.0 mi SE 3.5 mph - N/A   Clear
2:15 AM 52.2 °F - 34.5 °F 51% 29.75 in 10.0 mi Calm Calm - N/A   Clear
2:35 AM 52.0 °F - 35.2 °F 53% 29.75 in 10.0 mi NNW 9.2 mph - N/A   Clear
2:55 AM 51.6 °F - 35.6 °F 54% 29.75 in 10.0 mi NE 5.8 mph - N/A   Clear
3:15 AM 50.4 °F - 34.7 °F 55% 29.73 in 10.0 mi East 10.4 mph - N/A   Clear
3:35 AM 49.3 °F - 34.5 °F 57% 29.73 in 10.0 mi SSW 4.6 mph - N/A   Clear
3:55 AM 47.8 °F - 34.2 °F 59% 29.72 in 10.0 mi SSE 4.6 mph - N/A   Clear
4:15 AM 48.2 °F - 34.9 °F 60% 29.73 in 10.0 mi North 4.6 mph - N/A   Clear
4:35 AM 48.2 °F - 35.2 °F 61% 29.73 in 10.0 mi North 5.8 mph - N/A   Clear
4:55 AM 48.4 °F - 35.4 °F 61% 29.73 in 10.0 mi NE 4.6 mph - N/A   Clear
5:15 AM 47.5 °F - 35.6 °F 63% 29.73 in 10.0 mi Calm Calm - N/A   Clear
5:35 AM 43.5 °F - 32.4 °F 65% 29.74 in 10.0 mi Calm Calm - N/A   Clear
6:15 AM 43.9 °F - 33.4 °F 67% 29.75 in 10.0 mi Calm Calm - N/A   Clear
6:35 AM 42.8 °F 41.1 °F 33.6 °F 70% 29.76 in 10.0 mi NNW 3.5 mph - N/A   Clear
6:55 AM 43.3 °F - 33.4 °F 68% 29.76 in 10.0 mi Calm Calm - N/A   Clear
7:15 AM 40.3 °F - 32.0 °F 72% 29.77 in 10.0 mi Calm Calm - N/A   Clear
7:35 AM 40.5 °F - 32.0 °F 72% 29.78 in 10.0 mi Calm Calm - N/A   Clear
7:55 AM 39.4 °F - 31.8 °F 74% 29.79 in 10.0 mi Calm Calm - N/A   Clear
8:15 AM 39.2 °F - 32.0 °F 75% 29.79 in 10.0 mi Calm Calm - N/A   Clear
8:35 AM 40.5 °F 38.4 °F 32.2 °F 72% 29.79 in 10.0 mi West 3.5 mph - N/A   Clear
8:55 AM 44.1 °F - 34.7 °F 70% 29.80 in 10.0 mi Calm Calm - N/A   Clear
9:15 AM 47.5 °F - 36.7 °F 66% 29.81 in 10.0 mi South 3.5 mph - N/A   Clear
9:35 AM 51.6 °F - 37.6 °F 59% 29.81 in 10.0 mi SSW 4.6 mph - N/A   Clear
9:55 AM 58.1 °F - 37.2 °F 46% 29.82 in 10.0 mi WSW 4.6 mph - N/A   Clear
10:15 AM 64.2 °F - 33.6 °F 32% 29.82 in 10.0 mi SW 9.2 mph - N/A   Clear
10:35 AM 68.9 °F - 31.1 °F 25% 29.81 in 10.0 mi WSW 12.7 mph 18.4 mph N/A   Clear
10:55 AM 70.9 °F - 30.0 °F 22% 29.81 in 10.0 mi WSW 13.8 mph 25.3 mph N/A   Clear
11:15 AM 72.5 °F - 30.2 °F 21% 29.81 in 10.0 mi West 25.3 mph 32.2 mph N/A   Clear
11:35 AM 72.9 °F - 30.4 °F 21% 29.81 in 10.0 mi West 28.8 mph 34.5 mph N/A   Clear
11:55 AM 73.4 °F - 29.3 °F 20% 29.81 in 10.0 mi West 29.9 mph 34.5 mph N/A   Clear
12:55 PM 75.2 °F - 26.4 °F 16% 29.79 in 7.0 mi West 24.2 mph 34.5 mph N/A   Clear
1:35 PM 76.8 °F - 26.4 °F 16% 29.77 in 10.0 mi WSW 29.9 mph 36.8 mph N/A   Clear
1:55 PM 77.2 °F - 26.2 °F 15% 29.76 in 10.0 mi West 31.1 mph 43.7 mph N/A   Clear
2:15 PM 78.3 °F - 25.7 °F 14% 29.76 in 10.0 mi West 26.5 mph 33.4 mph N/A   Clear
2:55 PM 78.8 °F - 24.4 °F 13% 29.73 in 10.0 mi West 24.2 mph 32.2 mph N/A   Clear
4:15 PM 79.3 °F - 22.3 °F 12% 29.70 in 10.0 mi West 31.1 mph 39.1 mph N/A   Clear
4:35 PM 79.2 °F - 22.3 °F 12% 29.70 in 10.0 mi West 28.8 mph 39.1 mph N/A   Clear
11:15 PM 54.5 °F - -1.7 °F 10% 29.98 in 4.0 mi North 27.6 mph 36.8 mph N/A   Haze
11:35 PM 53.4 °F - -2.4 °F 10% 30.00 in 4.0 mi North 20.7 mph 33.4 mph N/A   Haze
11:55 PM 51.3 °F - 5.7 °F 16% 30.03 in 3.0 mi North 26.5 mph 34.5 mph N/A   Haze